{"data":{"norad_id":61619,"epoch":"2026-05-24T23:32:47.352768Z","epoch_age_seconds":73725,"freshness":"FRESH","line1":"1 61619U 24190C   26144.98110362  .00002592  00000+0  10895-3 0  9999","line2":"2 61619  34.9964 344.0186 0005208 145.0231 215.0826 15.23037320 88283","mean_motion":15.2303732,"eccentricity":0.0005208,"inclination_deg":34.9964,"raan_deg":344.0186,"arg_perigee_deg":145.0231,"mean_anomaly_deg":215.0826,"bstar":0.00010895,"rev_number":8828,"period_min":94.547912982198,"perigee_km":493.10490484952,"apogee_km":500.26571977002,"semimajor_km":6874.8223123098,"source":"CELESTRAK","updated_at":"2026-05-25T13:38:02.454545Z"}}